Location: Carrer del Canonge
(41.4901°N, 2.2931°E)
Time: 04:33:45
(UTC+00:00)

Cosmos 1048 Rocket - Pass Details

Date: 18 September 2020
Orbit: 742 x 792 km, 74.0° (Epoch: 25 October)

Event Time Altitude Azimuth Distance (km) Brightness Sun altitude
Rises 19:25:14 0° 346° (NNW) 3,258 7.7 -17.5°
Reaches altitude 10° 19:27:44 10° 353° (N) 2,335 6.8 -18.0°
Maximum altitude 19:32:48 44° 65° (ENE) 1,079 4.4 -18.9°
Enters shadow 19:34:11 36° 103° (ESE) 1,221 4.5 -19.1°
